Weather History for Cincinnati, OH

Change the Weather History Date:

Saturday, March 9, 2013

  Actual Average Record
Temperature  
Mean Temperature 40 °F -  
Max Temperature 57 °F 52 °F 76 °F (1974)
Min Temperature 24 °F 31 °F 9 °F (1984)
Degree Days  
Heating Degree Days 24    
Moisture  
Dew Point 30 °F    
Average Humidity 70    
Maximum Humidity 100    
Minimum Humidity 35    
Precipitation  
Precipitation 0.00 in - - ()
Sea Level Pressure  
Sea Level Pressure 30.25 in    
Wind  
Wind Speed 2 mph (SSE)    
Max Wind Speed 10 mph    
Max Gust Speed 17 mph    
Visibility 9 miles    
Events      
Averages and records for this station are not official NWS values.
T = Trace of Precipitation, MM = Missing Value Source: NWS Daily Summary

Daily Weather History Graph

Daily Weather History Graph

Search for Another Location

Airport:

Trip Planner

Search our weather history database for the weather conditions in past years. The results will help you decide how hot, cold, wet, or windy it might be!

Date:

Astronomy

Mar. 09, 2013 Rise Set
Actual Time 6:57 AM EST 6:38 PM EST
Civil Twilight 6:31 AM EST 7:05 PM EST
Nautical Twilight 6:00 AM EST 7:36 PM EST
Astronomical Twilight 5:29 AM EST 8:07 PM EST
Moon 5:20 AM EST (3/9) 4:40 PM EST (3/9)
Length of Visible Light 12h 34m
Length of Day
11h 40m
Waning Crescent, 5% of the Moon is Illuminated
Mar 9
Waning Crescent
Mar 11
New
Mar 19
First Quarter
Mar 27
Full
Apr 3
Last Quarter

Hourly Weather History & Observations

Time (EST) Temp. Windchill Dew Point Humidity Pressure Visibility Wind Dir Wind Speed Gust Speed Precip Events Conditions
12:53 AM 27.0 °F 23.0 °F 26.1 °F 96% 30.41 in 10.0 mi NNE 3.5 mph - N/A   Clear
1:53 AM 27.0 °F - 25.0 °F 92% 30.40 in 6.0 mi Calm Calm - N/A   Clear
2:53 AM 27.0 °F - 25.0 °F 92% 30.37 in 5.0 mi Calm Calm - N/A   Clear
3:53 AM 25.0 °F - 25.0 °F 100% 30.35 in 1.5 mi Calm Calm - N/A   Clear
4:04 AM 26.6 °F - 24.8 °F 93% 30.34 in 3.0 mi Calm Calm - N/A   Clear
4:53 AM 26.1 °F - 25.0 °F 96% 30.35 in 5.0 mi Calm Calm - N/A   Clear
5:53 AM 25.0 °F - 24.1 °F 96% 30.36 in 3.0 mi Calm Calm - N/A   Clear
6:53 AM 24.8 °F - 23.0 °F 93% 30.33 in 10.0 mi Calm Calm - N/A   Clear
7:11 AM 26.6 °F - 24.8 °F 93% 30.32 in 10.0 mi Calm Calm - N/A   Clear
7:53 AM 28.9 °F - 28.0 °F 96% 30.34 in 10.0 mi Calm Calm - N/A   Clear
8:53 AM 35.1 °F - 28.9 °F 78% 30.35 in 10.0 mi Calm Calm - N/A   Clear
9:53 AM 37.9 °F 34.4 °F 30.0 °F 73% 30.34 in 10.0 mi SW 4.6 mph - N/A   Clear
10:53 AM 42.1 °F 40.2 °F 30.0 °F 62% 30.32 in 10.0 mi SW 3.5 mph - N/A   Clear
11:53 AM 48.0 °F - 30.0 °F 50% 30.28 in 10.0 mi East 5.8 mph - N/A   Clear
12:53 PM 52.0 °F - 30.0 °F 43% 30.27 in 10.0 mi Variable 4.6 mph - N/A   Clear
1:53 PM 52.0 °F - 30.0 °F 43% 30.24 in 10.0 mi South 6.9 mph - N/A   Clear
2:53 PM 55.9 °F - 30.0 °F 37% 30.19 in 10.0 mi South 10.4 mph 17.3 mph N/A   Clear
3:53 PM 55.9 °F - 30.0 °F 37% 30.16 in 10.0 mi SE 5.8 mph - N/A   Clear
4:53 PM 57.9 °F - 30.0 °F 35% 30.14 in 10.0 mi SE 5.8 mph - N/A   Clear
5:53 PM 57.0 °F - 30.9 °F 37% 30.13 in 10.0 mi SE 5.8 mph - N/A   Overcast
6:53 PM 54.0 °F - 32.0 °F 43% 30.13 in 10.0 mi Calm Calm - N/A   Mostly Cloudy
7:53 PM 50.0 °F - 37.0 °F 61% 30.12 in 10.0 mi Calm Calm - N/A   Mostly Cloudy
8:53 PM 46.9 °F - 37.9 °F 71% 30.12 in 10.0 mi Calm Calm - N/A   Overcast
9:53 PM 46.9 °F - 37.9 °F 71% 30.10 in 10.0 mi East 3.5 mph - N/A   Scattered Clouds
10:53 PM 48.0 °F - 37.0 °F 66% 30.07 in 10.0 mi Calm Calm - N/A   Partly Cloudy
11:53 PM 46.9 °F - 37.0 °F 68% 30.07 in 10.0 mi Calm Calm - N/A   Mostly Cloudy